Location: The Jewett Observatory
(46.7288°N, 117.1525°W)
Time: 21:59:47
(UTC-08:00)

Cosmos 1633 - Visible Passes

Search period start: 26 February 2015 00:00
Search period end: 08 March 2015 00:00
Orbit: 489 x 508 km, 82.5° (Epoch: 26 February)

Date Brightness Start Highest point End Pass type
(mag) Time Alt. Az. Time Alt. Az. Time Alt. Az.
26 Feb 2.9 06:01:28 10° N 06:05:15 78° E 06:09:01 10° SSE visible
26 Feb 3.8 18:16:46 10° SE 18:19:45 23° E 18:22:50 10° NE visible
26 Feb 4.8 19:51:47 10° SW 19:55:03 27° WNW 19:58:19 10° NNW visible
27 Feb 3.5 05:41:12 10° N 05:44:56 54° ENE 05:48:37 10° SSE visible
27 Feb 4.2 19:31:08 10° SW 19:34:40 36° WNW 19:38:13 10° N visible
28 Feb 4.3 05:21:00 10° N 05:24:34 38° ENE 05:28:07 10° SE visible
28 Feb 3.5 19:10:36 10° SSW 19:14:17 51° WNW 19:18:00 10° N visible
01 Mar 4.9 05:00:52 10° NNE 05:04:10 28° ENE 05:07:28 10° SE visible
01 Mar 2.9 18:50:09 10° SSW 18:53:56 73° W 18:57:44 10° N visible
02 Mar 5.4 04:40:49 10° NNE 04:43:43 21° ENE 04:46:39 10° ESE visible
02 Mar 2.6 18:29:49 10° S 18:33:35 79° E 18:37:24 10° NNE visible
03 Mar 5.8 04:20:54 10° NNE 04:23:14 16° ENE 04:25:38 10° ESE visible
03 Mar 2.7 18:09:33 10° S 18:13:15 55° E 18:16:59 10° NNE visible
03 Mar 6.1 19:47:15 10° W 19:49:04 13° WNW 19:50:44 10° NW visible
04 Mar 6.1 04:01:18 10° NE 04:02:41 12° ENE 04:04:14 10° E visible
04 Mar 2.7 05:34:49 10° NNW 05:38:33 58° W 05:42:13 10° S visible
04 Mar 5.8 19:25:57 10° WSW 19:28:32 17° WNW 19:31:02 10° NNW visible
05 Mar 2.5 05:14:24 10° N 05:18:12 84° W 05:21:55 10° S visible
05 Mar 5.4 19:04:58 10° SW 19:08:02 22° WNW 19:11:03 10° NNW visible
06 Mar 3.0 04:54:02 10° N 04:57:49 68° E 05:01:31 10° SSE visible
06 Mar 4.8 18:44:09 10° SW 18:47:32 30° WNW 18:50:55 10° N visible
07 Mar 3.7 04:33:43 10° N 04:37:23 47° ENE 04:40:59 10° SSE visible
07 Mar 4.2 18:23:27 10° SSW 18:27:04 41° WNW 18:30:41 10° N visible
